Regional Weather Roundup
Issued by NWS

Home | Current Version | Previous Version | Text Only | Print | Product List | Glossary On
Versions: 1 2 3 4 5 6 7 8 9 10 11 12 13 14 15 16 17 18 19 20 21 22 23 24 25 26 27 28 29 30 31 32 33 34 35 36 37 38 39 40 41 42 43 44 45 46 47 48 49 50
448
ASUS43 KFSD 212110
RWRSD

WEATHER ROUNDUP FOR SOUTH DAKOTA
NATIONAL WEATHER SERVICE SIOUX FALLS SD
400 PM CDT MON MAY 21 2018

NOTE: "FAIR" INDICATES FEW OR NO CLOUDS BELOW 12,000 FEET WITH NO
SIGNIFICANT WEATHER AND/OR OBSTRUCTIONS TO VISIBILITY.


SDZ001>005-009-010-012>017-212200-
NORTHWEST AND NORTH CENTRAL SOUTH DAKOTA

CITY           SKY/WX    TMP DP  RH WIND       PRES   REMARKS
BUFFALO          N/A     75  49  39 S12       29.85
FAITH            N/A     71  50  47 E10       29.93F
MOBRIDGE       SUNNY     72  53  51 SE8       29.93F
$$

SDZ012>016-024>037-041>051-057-063-072>074-212200-
SOUTHWEST AND SOUTH CENTRAL SOUTH DAKOTA

CITY           SKY/WX    TMP DP  RH WIND       PRES   REMARKS
RAPID CTY ARPT SUNNY     73  53  49 SE18      29.92S
PIERRE         SUNNY     72  45  37 SE6       29.93F
CUSTER         SUNNY     69  40  34 VRB6      30.00S
ELLSWORTH AFB  SUNNY     73  55  51 SE8       29.91F
PHILIP         SUNNY     75  51  43 SE8       29.91F
PINE RIDGE     MOSUNNY   74  55  51 S8        29.93F
SPEARFISH      FAIR      72  52  49 E10G17    29.94F
WINNER         FAIR      75  50  41 S6        29.96F
$$

SDZ004>011-016>023-039-040-212200-
NORTHEAST SOUTH DAKOTA

CITY           SKY/WX    TMP DP  RH WIND       PRES   REMARKS
ABERDEEN       CLOUDY    70  55  59 S8        29.97F
WATERTOWN      CLOUDY    59  57  93 S6        29.99F
BROOKINGS      CLOUDY    63  56  78 CALM      30.00F
SISSETON         N/A     66  56  70 S10       29.98F
$$

SDZ017-020-022-023-036>040-048>070-212200-
SOUTHEAST SOUTH DAKOTA

CITY           SKY/WX    TMP DP  RH WIND       PRES   REMARKS
SIOUX FALLS    CLOUDY    64  57  78 CALM      30.00S
HURON          MOSUNNY   68  55  63 VRB3      29.96F
CHAMBERLAIN    SUNNY     74  52  46 SW3       29.95F
MITCHELL       PTSUNNY   70  57  63 MISG      29.97F
YANKTON        PTSUNNY   69  56  62 VRB3      29.98F
$$

ABBREVIATIONS USED IN REMARKS
   TC - TEMPERATURE IN CELSIUS
  WCI - WIND CHILL INDEX
   HX - HEAT INDEX
  VSB - VISIBILITY





USA.gov is the U.S. government's official web portal to all federal, state and local government web resources and services.